#timestamp,LO_Frequency,Hit,StdDev 
1710151215.0,286046989.3,P
1710151215.9,286046989.3,Y
1710151235.8,286046999.0,P
1710151255.6,286046997.3,N
1710151275.5,286046993.5,N
1710151295.3,286046991.8,N
1710151315.1,286046993.0,N
1710151335.9,286046993.7,N
1710151355.7,286046992.9,N
1710151375.6,286046991.3,Y
1710151395.4,286046993.4,P
1710151415.2,286046996.3,P
1710151435.1,286046993.0,P
1710151436.0,286046993.0,Y
1710151455.8,286046997.8,P
1710151475.6,286046996.1,N
1710151495.5,286046992.3,P
1710151515.3,286046992.5,Y
1710151535.2,286047002.8,P
1710151555.0,286047002.2,N
1710151555.9,286047002.2,N
1710151575.7,286047000.5,N
1710151595.6,286046998.9,N
1710151615.4,286046996.9,N
1710151635.3,286046998.0,N
1710151655.1,286046997.4,N
1710151656.0,286046997.4,N
1710151675.8,286046996.5,N
1710151695.7,286046996.7,N
1710151715.5,286046997.4,N
1710151735.3,286046993.8,N
1710151755.2,286046993.0,N
1710151775.0,286046991.5,N
1710151775.9,286046991.5,N
1710151795.8,286046988.8,Y
1710151815.6,286046988.9,P
1710151835.4,286046988.5,N
1710151855.3,286046989.1,N
1710151875.1,286046991.0,N
1710151895.9,286046988.2,Y
1710151915.7,286046993.8,P
1710151935.5,286046992.4,P
1710151955.4,286046991.4,P
1710151975.2,286046989.7,Y
1710151995.0,286046996.1,P
1710151995.9,286046996.1,N
1710152015.8,286046997.6,N
1710152035.6,286046999.5,N
1710152055.5,286046995.4,N
1710152075.3,286046997.4,N
1710152095.1,286046996.1,N
1710152115.9,286046992.4,Y
1710152135.7,286046995.0,P
1710152155.5,286046996.1,P
1710152175.4,286046997.9,P
1710152195.2,286046997.9,N
1710152215.1,286046997.8,N
1710152216.0,286046997.8,N
1710152235.8,286046996.3,Y
1710152255.6,286046996.6,P
1710152275.5,286046997.6,P
1710152295.3,286046997.4,P
1710152315.2,286046995.0,Y
1710152335.9,286047002.8,P
1710152355.7,286046999.8,N
1710152375.6,286046998.1,N
1710152395.4,286046999.3,N
1710152415.3,286046998.4,N
1710152435.1,286046995.4,N
1710152436.0,286046995.4,N
1710152455.8,286046993.3,N
1710152475.7,286046994.8,N
1710152495.5,286046994.3,N
1710152515.3,286046994.6,N
1710152535.2,286046994.2,N
1710152555.0,286046994.3,N
1710152555.9,286046994.3,N
1710152575.8,286046993.6,N
1710152595.6,286046997.2,N
1710152615.4,286046998.5,N
1710152635.3,286047001.4,N
1710152655.1,286046999.2,N
1710152675.9,286046995.3,N
1710152695.7,286046996.3,N
1710152715.5,286046997.0,N
1710152735.4,286046997.2,N
1710152755.2,286046999.8,N
1710152775.0,286047002.7,N
1710152775.9,286047002.7,N
1710152795.8,286047004.7,N
1710152815.6,286047006.2,N
1710152835.5,286047003.1,N
1710152855.3,286047005.2,N
1710152875.1,286047002.9,N
1710152895.9,286047000.9,N
1710152915.7,286046998.1,N
1710152935.6,286046997.1,N
1710152955.4,286046995.6,N
1710152975.2,286046994.2,N
1710152995.1,286046993.1,N
1710152996.0,286046993.1,N
1710153015.8,286046992.4,N
1710153035.6,286046992.5,N
1710153055.5,286046995.7,N
1710153075.3,286046998.2,N
1710153095.2,286047007.0,N
1710153115.9,286047003.4,N
1710153135.4,286047002.7,N
1710153155.3,286046999.0,N
1710153175.1,286046998.0,N
1710153195.9,286046999.4,N
1710153215.7,286046998.4,N
1710153235.5,286046995.6,N
1710153255.4,286046991.8,N
1710153275.2,286046995.5,N
1710153295.0,286047001.0,N
1710153295.9,286047001.0,N
1710153315.8,286046999.0,N
1710153335.6,286046996.1,N
1710153355.5,286046993.6,N
1710153375.3,286046993.8,N
1710153395.2,286046994.7,N
1710153415.9,286046989.6,N
1710153435.7,286046988.2,N
1710153455.6,286046992.4,N
1710153475.4,286046988.9,N
1710153495.2,286046987.4,N
1710153515.1,286046986.5,N
1710153516.0,286046986.5,N
1710153535.8,286046984.2,Y
1710153555.7,286046987.6,P
1710153575.5,286046989.0,N
1710153595.3,286046991.5,N
1710153615.2,286046987.8,Y
1710153635.0,286046997.6,P
1710153635.9,286046997.6,N
1710153655.8,286046999.1,N
1710153675.6,286046995.1,N
1710153695.4,286046994.2,N
1710153715.3,286046988.9,Y
1710153735.1,286046992.1,P
1710153755.8,286046990.8,P
1710153775.7,286046989.3,P
1710153795.5,286046994.5,N
1710153815.4,286047000.9,N
1710153835.2,286046999.8,N
1710153855.0,286046999.8,N
1710153855.9,286046999.8,N
1710153875.8,286046998.7,N
1710153895.6,286046998.7,N
1710153915.4,286046996.8,N
1710153935.3,286046996.0,N
1710153955.1,286046992.1,N
1710153975.9,286046991.7,N
1710153995.7,286046997.1,N
1710154015.5,286046998.5,N
1710154035.4,286047000.2,N
1710154055.2,286047001.3,N
1710154075.0,286047005.4,N
1710154075.9,286047005.4,N
1710154095.8,286047003.0,N
1710154115.6,286047011.9,N
1710154135.5,286047007.3,N
1710154155.3,286047009.1,N
1710154175.1,286047008.8,N
1710154195.9,286047012.0,N
1710154215.7,286047009.3,N
1710154235.5,286047008.2,N
1710154255.4,286047007.5,N
1710154275.2,286047003.5,N
1710154295.1,286046999.0,N
1710154296.0,286046999.0,N
1710154315.8,286046993.5,N
1710154335.6,286046988.9,N
1710154355.5,286046984.3,N
1710154375.3,286046980.6,N
1710154395.1,286046984.6,N
1710154415.9,286046984.9,N
1710154435.7,286046977.2,N
1710154455.6,286046971.3,Y
1710154475.4,286046976.5,P
1710154495.2,286046971.6,N
1710154515.1,286046971.2,N
1710154516.0,286046971.2,N
1710154535.8,286046974.8,N
1710154555.6,286046973.4,N
1710154575.5,286046970.4,Y
1710154595.3,286046992.1,P
1710154615.2,286046998.6,N
1710154635.9,286047000.9,N
1710154655.7,286046996.3,N
1710154675.6,286046997.5,N
1710154695.4,286046995.2,N
1710154715.2,286046997.5,N
1710154735.1,286047000.3,N
1710154736.0,286047000.3,N
1710154755.8,286046999.9,N
1710154775.7,286046998.9,N
1710154795.5,286046997.8,N
